Torna al catalogo

FENGYUN 1C DEB

AttivoPO
NORAD 31527·DEBRIS·🇨🇳 China

Lanciato May 10, 1999 da Taiyuan Satellite Launch Center

Loading…

Prossimi Passaggi (prossime 24 ore)

TLE

AggiornatoSource: Space-Track

Epoca: Sep 12, 2026, 15:30 UTC

1 31527U 99025BXS 26255.64613798  .00000259  00000-0  40835-3 0  9996
2 31527  98.9288  27.3006 0448158 352.2474   7.1877 13.23624064938134

Traccia FENGYUN 1C DEB in tempo reale con AllMySat

Download on the App Store